Year,Month,Day,Hour,Minute,Value (Times are PST for temperature in C)
2009,08,07,00,00,14.30
2009,08,07,00,01,14.30
2009,08,07,00,02,14.20
2009,08,07,00,03,14.20
2009,08,07,00,04,14.20
2009,08,07,00,05,14.30
2009,08,07,00,06,14.30
2009,08,07,00,07,14.30
2009,08,07,00,08,14.30
2009,08,07,00,09,14.30
2009,08,07,00,10,14.30
2009,08,07,00,11,14.30
2009,08,07,00,12,14.30
2009,08,07,00,13,14.30
2009,08,07,00,14,14.30
2009,08,07,00,15,14.30
2009,08,07,00,16,14.20
2009,08,07,00,17,14.20
2009,08,07,00,18,14.20
2009,08,07,00,19,14.20
2009,08,07,00,20,14.20
2009,08,07,00,21,14.20
2009,08,07,00,22,14.20
2009,08,07,00,23,14.20
2009,08,07,00,24,14.20
2009,08,07,00,25,14.20
2009,08,07,00,26,14.20
2009,08,07,00,27,14.20
2009,08,07,00,28,14.20
2009,08,07,00,29,14.20
2009,08,07,00,30,14.20
2009,08,07,00,31,14.20
2009,08,07,00,32,14.20
2009,08,07,00,33,14.20
2009,08,07,00,34,14.20
2009,08,07,00,35,14.20
2009,08,07,00,36,14.20
2009,08,07,00,37,14.20
2009,08,07,00,38,14.20
2009,08,07,00,39,14.20
2009,08,07,00,40,14.20
2009,08,07,00,41,14.20
2009,08,07,00,42,14.20
2009,08,07,00,43,14.10
2009,08,07,00,44,14.10
2009,08,07,00,45,14.10
2009,08,07,00,46,14.10
2009,08,07,00,47,14.10
2009,08,07,00,48,14.10
2009,08,07,00,49,14.10
2009,08,07,00,50,14.10
2009,08,07,00,51,14.10
2009,08,07,00,52,14.20
2009,08,07,00,53,14.20
2009,08,07,00,54,14.20
2009,08,07,00,55,14.20
2009,08,07,00,56,14.20
2009,08,07,00,57,14.20
2009,08,07,00,58,14.20
2009,08,07,00,59,14.20
2009,08,07,01,00,14.20
2009,08,07,01,01,14.20
2009,08,07,01,02,14.20
2009,08,07,01,03,14.20
2009,08,07,01,04,14.10
2009,08,07,01,05,14.10
2009,08,07,01,06,14.10
2009,08,07,01,07,14.10
2009,08,07,01,08,14.10
2009,08,07,01,09,14.10
2009,08,07,01,10,14.10
2009,08,07,01,11,14.10
2009,08,07,01,12,14.10
2009,08,07,01,13,14.00
2009,08,07,01,14,14.00
2009,08,07,01,15,14.00
2009,08,07,01,16,14.00
2009,08,07,01,17,14.00
2009,08,07,01,18,14.00
2009,08,07,01,19,14.00
2009,08,07,01,20,14.00
2009,08,07,01,21,14.00
2009,08,07,01,22,14.00
2009,08,07,01,23,14.00
2009,08,07,01,24,14.00
2009,08,07,01,25,14.00
2009,08,07,01,26,14.00
2009,08,07,01,27,14.00
2009,08,07,01,28,14.00
2009,08,07,01,29,14.00
2009,08,07,01,30,14.00
2009,08,07,01,31,14.00
2009,08,07,01,32,14.00
2009,08,07,01,33,13.90
2009,08,07,01,34,13.90
2009,08,07,01,35,13.90
2009,08,07,01,36,13.90
2009,08,07,01,37,13.90
2009,08,07,01,38,13.80
2009,08,07,01,39,13.80
2009,08,07,01,40,13.80
2009,08,07,01,41,13.80
2009,08,07,01,42,13.70
2009,08,07,01,43,13.70
2009,08,07,01,44,13.70
2009,08,07,01,45,13.70
2009,08,07,01,46,13.70
2009,08,07,01,47,13.70
2009,08,07,01,48,13.70
2009,08,07,01,49,13.70
2009,08,07,01,50,13.60
2009,08,07,01,51,13.60
2009,08,07,01,52,13.60
2009,08,07,01,53,13.60
2009,08,07,01,54,13.60
2009,08,07,01,55,13.60
2009,08,07,01,56,13.50
2009,08,07,01,57,13.50
2009,08,07,01,58,13.50
2009,08,07,01,59,13.50
2009,08,07,02,00,13.50
2009,08,07,02,01,13.50
2009,08,07,02,02,13.50
2009,08,07,02,03,13.50
2009,08,07,02,04,13.40
2009,08,07,02,05,13.40
2009,08,07,02,06,13.40
2009,08,07,02,07,13.40
2009,08,07,02,08,13.40
2009,08,07,02,09,13.40
2009,08,07,02,10,13.40
2009,08,07,02,11,13.40
2009,08,07,02,12,13.40
2009,08,07,02,13,13.40
2009,08,07,02,14,13.40
2009,08,07,02,15,13.40
2009,08,07,02,16,13.40
2009,08,07,02,17,13.40
2009,08,07,02,18,13.40
2009,08,07,02,19,13.40
2009,08,07,02,20,13.40
2009,08,07,02,21,13.40
2009,08,07,02,22,13.40
2009,08,07,02,23,13.40
2009,08,07,02,24,13.40
2009,08,07,02,25,13.40
2009,08,07,02,26,13.40
2009,08,07,02,27,13.40
2009,08,07,02,28,13.40
2009,08,07,02,29,13.40
2009,08,07,02,30,13.40
2009,08,07,02,31,13.40
2009,08,07,02,32,13.40
2009,08,07,02,33,13.40
2009,08,07,02,34,13.40
2009,08,07,02,35,13.40
2009,08,07,02,36,13.40
2009,08,07,02,37,13.40
2009,08,07,02,38,13.40
2009,08,07,02,39,13.40
2009,08,07,02,40,13.40
2009,08,07,02,41,13.40
2009,08,07,02,42,13.40
2009,08,07,02,43,13.30
2009,08,07,02,44,13.30
2009,08,07,02,45,13.30
2009,08,07,02,46,13.30
2009,08,07,02,47,13.30
2009,08,07,02,48,13.30
2009,08,07,02,49,13.30
2009,08,07,02,50,13.30
2009,08,07,02,51,13.30
2009,08,07,02,52,13.30
2009,08,07,02,53,13.30
2009,08,07,02,54,13.30
2009,08,07,02,55,13.30
2009,08,07,02,56,13.30
2009,08,07,02,57,13.30
2009,08,07,02,58,13.30
2009,08,07,02,59,13.30
2009,08,07,03,00,13.30
2009,08,07,03,01,13.30
2009,08,07,03,02,13.30
2009,08,07,03,03,13.30
2009,08,07,03,04,13.20
2009,08,07,03,05,13.20
2009,08,07,03,06,13.20
2009,08,07,03,07,13.20
2009,08,07,03,08,13.20
2009,08,07,03,09,13.20
2009,08,07,03,10,13.20
2009,08,07,03,11,13.20
2009,08,07,03,12,13.20
2009,08,07,03,13,13.20
2009,08,07,03,14,13.20
2009,08,07,03,15,13.20
2009,08,07,03,16,13.20
2009,08,07,03,17,13.20
2009,08,07,03,18,13.20
2009,08,07,03,19,13.20
2009,08,07,03,20,13.10
2009,08,07,03,21,13.10
2009,08,07,03,22,13.10
2009,08,07,03,23,13.10
2009,08,07,03,24,13.10
2009,08,07,03,25,13.10
2009,08,07,03,26,13.10
2009,08,07,03,27,13.10
2009,08,07,03,28,13.10
2009,08,07,03,29,13.10
2009,08,07,03,30,13.10
2009,08,07,03,31,13.10
2009,08,07,03,32,13.10
2009,08,07,03,33,13.00
2009,08,07,03,34,13.00
2009,08,07,03,35,13.00
2009,08,07,03,36,13.00
2009,08,07,03,37,13.00
2009,08,07,03,38,13.00
2009,08,07,03,39,13.00
2009,08,07,03,40,13.00
2009,08,07,03,41,13.00
2009,08,07,03,42,13.00
2009,08,07,03,43,13.00
2009,08,07,03,44,13.00
2009,08,07,03,45,13.00
2009,08,07,03,46,13.00
2009,08,07,03,47,13.00
2009,08,07,03,48,13.00
2009,08,07,03,49,13.00
2009,08,07,03,50,13.00
2009,08,07,03,51,13.00
2009,08,07,03,52,13.00
2009,08,07,03,53,13.00
2009,08,07,03,54,13.00
2009,08,07,03,55,13.00
2009,08,07,03,56,13.00
2009,08,07,03,57,13.00
2009,08,07,03,58,13.00
2009,08,07,03,59,12.90
2009,08,07,04,00,12.90
2009,08,07,04,01,12.90
2009,08,07,04,02,12.90
2009,08,07,04,03,12.90
2009,08,07,04,04,12.90
2009,08,07,04,05,13.00
2009,08,07,04,06,13.00
2009,08,07,04,07,13.00
2009,08,07,04,08,13.00
2009,08,07,04,09,13.00
2009,08,07,04,10,13.00
2009,08,07,04,11,13.00
2009,08,07,04,12,13.00
2009,08,07,04,13,13.00
2009,08,07,04,14,13.00
2009,08,07,04,15,13.00
2009,08,07,04,16,13.00
2009,08,07,04,17,13.00
2009,08,07,04,18,12.90
2009,08,07,04,19,12.90
2009,08,07,04,20,12.90
2009,08,07,04,21,12.90
2009,08,07,04,22,12.90
2009,08,07,04,23,12.90
2009,08,07,04,24,12.90
2009,08,07,04,25,12.90
2009,08,07,04,26,12.90
2009,08,07,04,27,12.90
2009,08,07,04,28,12.80
2009,08,07,04,29,12.80
2009,08,07,04,30,12.80
2009,08,07,04,31,12.80
2009,08,07,04,32,12.80
2009,08,07,04,33,12.80
2009,08,07,04,34,12.80
2009,08,07,04,35,12.80
2009,08,07,04,36,12.80
2009,08,07,04,37,12.80
2009,08,07,04,38,12.80
2009,08,07,04,39,12.80
2009,08,07,04,40,12.80
2009,08,07,04,41,12.70
2009,08,07,04,42,12.70
2009,08,07,04,43,12.70
2009,08,07,04,44,12.70
2009,08,07,04,45,12.70
2009,08,07,04,46,12.70
2009,08,07,04,47,12.70
2009,08,07,04,48,12.70
2009,08,07,04,49,12.70
2009,08,07,04,50,12.70
2009,08,07,04,51,12.70
2009,08,07,04,52,12.70
2009,08,07,08,16,13.60
2009,08,07,08,17,13.60
2009,08,07,08,18,13.70
2009,08,07,08,19,13.70
2009,08,07,08,20,13.70
2009,08,07,08,21,13.70
2009,08,07,08,22,13.80
2009,08,07,08,23,13.80
2009,08,07,08,24,13.80
2009,08,07,08,25,13.80
2009,08,07,08,26,13.80
2009,08,07,08,27,13.80
2009,08,07,08,28,13.80
2009,08,07,08,29,13.80
2009,08,07,08,30,13.80
2009,08,07,08,31,13.90
2009,08,07,08,32,13.90
2009,08,07,08,33,13.90
2009,08,07,08,34,13.80
2009,08,07,08,35,13.80
2009,08,07,08,36,13.80
2009,08,07,08,37,13.80
2009,08,07,08,38,13.90
2009,08,07,08,39,13.80
2009,08,07,08,40,13.80
2009,08,07,08,41,13.80
2009,08,07,08,42,13.90
2009,08,07,08,43,13.90
2009,08,07,08,44,13.90
2009,08,07,08,45,14.00
2009,08,07,08,46,14.00
2009,08,07,08,47,14.00
2009,08,07,08,48,14.00
2009,08,07,08,49,14.00
2009,08,07,08,50,14.00
2009,08,07,08,51,14.00
2009,08,07,08,52,14.00
2009,08,07,08,53,14.00
2009,08,07,08,54,14.00
2009,08,07,08,55,14.00
2009,08,07,08,56,14.10
2009,08,07,08,57,14.10
2009,08,07,08,58,14.10
2009,08,07,08,59,14.10
2009,08,07,09,00,14.10
2009,08,07,09,01,14.20
2009,08,07,09,02,14.20
2009,08,07,09,03,14.20
2009,08,07,09,04,14.20
2009,08,07,09,05,14.20
2009,08,07,09,06,14.20
2009,08,07,09,07,14.20
2009,08,07,09,08,14.20
2009,08,07,09,09,14.20
2009,08,07,09,10,14.30
2009,08,07,09,11,14.30
2009,08,07,09,12,14.30
2009,08,07,09,13,14.30
2009,08,07,09,14,14.30
2009,08,07,09,15,14.30
2009,08,07,09,16,14.30
2009,08,07,09,17,14.30
2009,08,07,09,18,14.30
2009,08,07,09,19,14.30
2009,08,07,09,20,14.30
2009,08,07,09,21,14.40
2009,08,07,09,22,14.30
2009,08,07,09,23,14.30
2009,08,07,09,24,14.30
2009,08,07,09,25,14.30
2009,08,07,09,26,14.20
2009,08,07,09,27,14.20
2009,08,07,09,28,14.20
2009,08,07,09,29,14.20
2009,08,07,09,30,14.20
2009,08,07,09,31,14.20
2009,08,07,09,32,14.20
2009,08,07,09,33,14.20
2009,08,07,09,34,14.20
2009,08,07,09,35,14.30
2009,08,07,09,36,14.30
2009,08,07,09,37,14.40
2009,08,07,09,38,14.40
2009,08,07,09,39,14.50
2009,08,07,09,40,14.50
2009,08,07,09,41,14.50
2009,08,07,09,42,14.60
2009,08,07,09,43,14.60
2009,08,07,09,44,14.60
2009,08,07,09,45,14.70
2009,08,07,09,46,14.70
2009,08,07,09,47,14.70
2009,08,07,09,48,14.70
2009,08,07,09,49,14.70
2009,08,07,09,50,14.70
2009,08,07,09,51,14.70
2009,08,07,09,52,14.70
2009,08,07,09,53,14.80
2009,08,07,09,54,14.80
2009,08,07,09,55,14.80
2009,08,07,09,56,14.80
2009,08,07,09,57,14.90
2009,08,07,09,58,14.90
2009,08,07,09,59,14.90
2009,08,07,10,00,14.90
2009,08,07,10,01,14.90
2009,08,07,10,02,15.00
2009,08,07,10,03,15.00
2009,08,07,10,04,15.00
2009,08,07,10,05,15.00
2009,08,07,10,06,15.00
2009,08,07,10,07,15.10
2009,08,07,10,08,15.10
2009,08,07,10,09,15.10
2009,08,07,10,10,15.20
2009,08,07,10,11,15.20
2009,08,07,10,12,15.30
2009,08,07,10,13,15.30
2009,08,07,10,14,15.30
2009,08,07,10,15,15.40
2009,08,07,10,16,15.40
2009,08,07,10,17,15.50
2009,08,07,10,18,15.50
2009,08,07,10,19,15.50
2009,08,07,10,20,15.50
2009,08,07,10,21,15.50
2009,08,07,10,22,15.60
2009,08,07,10,23,15.60
2009,08,07,10,24,15.60
2009,08,07,10,25,15.50
2009,08,07,10,26,15.50
2009,08,07,10,27,15.50
2009,08,07,10,28,15.40
2009,08,07,10,29,15.50
2009,08,07,10,30,15.50
2009,08,07,10,31,15.40
2009,08,07,10,32,15.30
2009,08,07,10,33,15.10
2009,08,07,10,34,15.00
2009,08,07,10,35,15.00
2009,08,07,10,36,15.00
2009,08,07,10,37,14.90
2009,08,07,10,38,14.90
2009,08,07,10,39,14.80
2009,08,07,10,40,14.80
2009,08,07,10,41,14.80
2009,08,07,10,42,14.80
2009,08,07,10,43,14.80
2009,08,07,10,44,14.80
2009,08,07,10,45,14.80
2009,08,07,10,46,14.80
2009,08,07,10,47,14.80
2009,08,07,10,48,14.80
2009,08,07,10,49,14.70
2009,08,07,10,50,14.70
2009,08,07,10,51,14.70
2009,08,07,10,52,14.80
2009,08,07,10,53,14.80
2009,08,07,10,54,14.80
2009,08,07,10,55,14.80
2009,08,07,10,56,14.80
2009,08,07,10,57,14.80
2009,08,07,10,58,14.90
2009,08,07,10,59,15.00
2009,08,07,11,00,15.00
2009,08,07,11,01,14.90
2009,08,07,11,02,14.80
2009,08,07,11,03,14.80
2009,08,07,11,04,14.80
2009,08,07,11,05,14.90
2009,08,07,11,06,14.90
2009,08,07,11,07,14.90
2009,08,07,11,08,14.90
2009,08,07,11,09,15.00
2009,08,07,11,10,15.00
2009,08,07,11,11,15.00
2009,08,07,11,12,15.00
2009,08,07,11,13,15.00
2009,08,07,11,14,15.00
2009,08,07,11,15,15.00
2009,08,07,11,16,15.00
2009,08,07,11,17,15.00
2009,08,07,11,18,15.00
2009,08,07,11,19,15.10
2009,08,07,11,20,15.10
2009,08,07,11,21,15.10
2009,08,07,11,22,15.10
2009,08,07,11,23,15.20
2009,08,07,11,24,15.20
2009,08,07,11,25,15.20
2009,08,07,11,26,15.30
2009,08,07,11,27,15.30
2009,08,07,11,28,15.40
2009,08,07,11,29,15.50
2009,08,07,11,30,15.50
2009,08,07,11,31,15.60
2009,08,07,11,32,15.60
2009,08,07,11,33,15.70
2009,08,07,11,34,15.70
2009,08,07,11,35,15.80
2009,08,07,11,36,15.80
2009,08,07,11,37,15.80
2009,08,07,11,38,15.80
2009,08,07,11,39,15.90
2009,08,07,11,40,15.90
2009,08,07,11,41,15.90
2009,08,07,11,42,16.00
2009,08,07,11,43,16.00
2009,08,07,11,44,15.90
2009,08,07,11,45,15.90
2009,08,07,11,46,15.90
2009,08,07,11,47,15.90
2009,08,07,11,48,16.00
2009,08,07,11,49,16.10
2009,08,07,11,50,16.10
2009,08,07,11,51,16.10
2009,08,07,11,52,16.10
2009,08,07,11,53,16.10
2009,08,07,11,54,16.10
2009,08,07,11,55,16.10
2009,08,07,11,56,16.10
2009,08,07,11,57,16.10
2009,08,07,11,58,16.10
2009,08,07,11,59,16.10
2009,08,07,12,00,16.10
2009,08,07,12,01,16.10
2009,08,07,12,02,16.10
2009,08,07,12,03,16.10
2009,08,07,12,04,16.10
2009,08,07,12,05,16.10
2009,08,07,12,06,16.20
2009,08,07,12,07,16.20
2009,08,07,12,08,16.20
2009,08,07,12,09,16.20
2009,08,07,12,10,16.20
2009,08,07,12,11,16.20
2009,08,07,12,12,16.20
2009,08,07,12,13,16.10
2009,08,07,12,14,16.00
2009,08,07,12,15,15.90
2009,08,07,12,16,15.80
2009,08,07,12,17,15.70
2009,08,07,12,18,15.60
2009,08,07,12,19,15.50
2009,08,07,12,20,15.40
2009,08,07,12,21,15.30
2009,08,07,12,22,15.30
2009,08,07,12,23,15.30
2009,08,07,12,24,15.10
2009,08,07,12,25,15.10
2009,08,07,12,26,15.10
2009,08,07,12,27,15.00
2009,08,07,12,28,14.90
2009,08,07,12,29,14.90
2009,08,07,12,30,14.80
2009,08,07,12,31,14.80
2009,08,07,12,32,14.80
2009,08,07,12,33,14.80
2009,08,07,12,34,14.80
2009,08,07,12,35,14.80
2009,08,07,12,36,14.80
2009,08,07,12,37,14.80
2009,08,07,12,38,14.70
2009,08,07,12,39,14.70
2009,08,07,12,40,14.80
2009,08,07,12,41,14.70
2009,08,07,12,42,14.60
2009,08,07,12,43,14.60
2009,08,07,12,44,14.70
2009,08,07,12,45,14.70
2009,08,07,12,46,14.60
2009,08,07,12,47,14.60
2009,08,07,12,48,14.50
2009,08,07,12,49,14.50
2009,08,07,12,50,14.50
2009,08,07,12,51,14.40
2009,08,07,12,52,14.40
2009,08,07,12,53,14.40
2009,08,07,12,54,14.40
2009,08,07,12,55,14.50
2009,08,07,12,56,14.50
2009,08,07,12,57,14.50
2009,08,07,12,58,14.50
2009,08,07,12,59,14.60
2009,08,07,13,00,14.60
2009,08,07,13,01,14.60
2009,08,07,13,02,14.60
2009,08,07,13,03,14.60
2009,08,07,13,04,14.50
2009,08,07,13,05,14.60
2009,08,07,13,06,14.60
2009,08,07,13,07,14.60
2009,08,07,13,08,14.60
2009,08,07,13,09,14.60
2009,08,07,13,10,14.50
2009,08,07,13,11,14.50
2009,08,07,13,12,14.40
2009,08,07,13,13,14.30
2009,08,07,13,14,14.20
2009,08,07,13,15,14.10
2009,08,07,13,16,14.00
2009,08,07,13,17,14.00
2009,08,07,13,18,14.10
2009,08,07,13,19,14.20
2009,08,07,13,20,14.40
2009,08,07,13,21,14.40
2009,08,07,13,22,14.30
2009,08,07,13,23,14.20
2009,08,07,13,24,14.20
2009,08,07,13,25,14.20
2009,08,07,13,26,14.20
2009,08,07,13,27,14.20
2009,08,07,13,28,14.20
2009,08,07,13,29,14.20
2009,08,07,13,30,14.20
2009,08,07,13,31,14.20
2009,08,07,13,32,14.20
2009,08,07,13,33,14.20
2009,08,07,13,34,14.20
2009,08,07,13,35,14.20
2009,08,07,13,36,14.10
2009,08,07,13,37,14.10
2009,08,07,13,38,14.10
2009,08,07,13,39,14.10
2009,08,07,13,40,14.10
2009,08,07,13,41,14.10
2009,08,07,13,42,14.10
2009,08,07,13,43,14.10
2009,08,07,13,44,14.10
2009,08,07,13,45,14.10
2009,08,07,13,46,14.10
2009,08,07,13,47,14.20
2009,08,07,13,48,14.20
2009,08,07,13,49,14.20
2009,08,07,13,50,14.20
2009,08,07,13,51,14.20
2009,08,07,13,52,14.20
2009,08,07,13,53,14.20
2009,08,07,13,54,14.20
2009,08,07,13,55,14.20
2009,08,07,13,56,14.20
2009,08,07,13,57,14.10
2009,08,07,13,58,14.10
2009,08,07,13,59,14.10
2009,08,07,14,00,14.10
2009,08,07,14,01,14.00
2009,08,07,14,02,13.90
2009,08,07,14,03,14.00
2009,08,07,14,04,14.00
2009,08,07,14,05,14.10
2009,08,07,14,06,14.10
2009,08,07,14,07,14.20
2009,08,07,14,08,14.20
2009,08,07,14,09,14.20
2009,08,07,14,10,14.20
2009,08,07,14,11,14.20
2009,08,07,14,12,14.20
2009,08,07,14,13,14.20
2009,08,07,14,14,14.20
2009,08,07,14,15,14.20
2009,08,07,14,16,14.20
2009,08,07,14,17,14.20
2009,08,07,14,18,14.20
2009,08,07,14,19,14.20
2009,08,07,14,20,14.20
2009,08,07,14,21,14.20
2009,08,07,14,22,14.20
2009,08,07,14,23,14.20
2009,08,07,14,24,14.20
2009,08,07,14,25,14.20
2009,08,07,14,26,14.30
2009,08,07,14,27,14.30
2009,08,07,14,28,14.30
2009,08,07,14,29,14.30
2009,08,07,14,30,14.30
2009,08,07,14,31,14.30
2009,08,07,14,32,14.20
2009,08,07,14,33,14.20
2009,08,07,14,34,14.30
2009,08,07,14,35,14.30
2009,08,07,14,36,14.30
2009,08,07,14,37,14.30
2009,08,07,14,38,14.30
2009,08,07,14,39,14.30
2009,08,07,14,40,14.30
2009,08,07,14,41,14.40
2009,08,07,14,42,14.40
2009,08,07,14,43,14.40
2009,08,07,14,44,14.30
2009,08,07,14,45,14.30
2009,08,07,14,46,14.40
2009,08,07,14,47,14.50
2009,08,07,14,48,14.60
2009,08,07,14,49,14.60
2009,08,07,14,50,14.60
2009,08,07,14,51,14.60
2009,08,07,14,52,14.60
2009,08,07,14,53,14.70
2009,08,07,14,54,14.80
2009,08,07,14,55,14.90
2009,08,07,14,56,14.90
2009,08,07,14,57,15.00
2009,08,07,14,58,15.10
2009,08,07,14,59,15.00
2009,08,07,15,00,15.00
2009,08,07,15,01,15.00
2009,08,07,15,02,15.00
2009,08,07,15,03,14.90
2009,08,07,15,04,14.90
2009,08,07,15,05,15.00
2009,08,07,15,06,15.00
2009,08,07,15,07,15.10
2009,08,07,15,08,15.10
2009,08,07,15,09,15.20
2009,08,07,15,10,15.10
2009,08,07,15,11,15.00
2009,08,07,15,12,14.90
2009,08,07,15,13,14.90
2009,08,07,15,14,15.00
2009,08,07,15,15,15.00
2009,08,07,15,16,15.00
2009,08,07,15,17,15.10
2009,08,07,15,18,15.10
2009,08,07,15,19,15.10
2009,08,07,15,20,15.20
2009,08,07,15,21,15.30
2009,08,07,15,22,15.30
2009,08,07,15,23,15.30
2009,08,07,15,24,15.30
2009,08,07,15,25,15.30
2009,08,07,15,26,15.30
2009,08,07,15,27,15.30
2009,08,07,15,28,15.30
2009,08,07,15,29,15.30
2009,08,07,15,30,15.30
2009,08,07,15,31,15.20
2009,08,07,15,32,15.10
2009,08,07,15,33,15.10
2009,08,07,15,34,15.00
2009,08,07,15,35,15.00
2009,08,07,15,36,15.10
2009,08,07,15,37,15.10
2009,08,07,15,38,15.20
2009,08,07,15,39,15.10
2009,08,07,15,40,15.10
2009,08,07,15,41,15.00
2009,08,07,15,42,15.00
2009,08,07,15,43,15.00
2009,08,07,15,44,14.90
2009,08,07,15,45,14.90
2009,08,07,15,46,14.90
2009,08,07,15,47,14.90
2009,08,07,15,48,15.10
2009,08,07,15,49,15.10
2009,08,07,15,50,15.10
2009,08,07,15,51,15.10
2009,08,07,15,52,15.00
2009,08,07,15,53,15.10
2009,08,07,15,54,15.10
2009,08,07,15,55,15.10
2009,08,07,15,56,15.10
2009,08,07,15,57,15.00
2009,08,07,15,58,15.00
2009,08,07,15,59,15.00
2009,08,07,16,00,15.00
2009,08,07,16,01,14.90
2009,08,07,16,02,14.80
2009,08,07,16,03,14.80
2009,08,07,16,04,14.60
2009,08,07,16,05,14.60
2009,08,07,16,06,14.60
2009,08,07,16,07,14.60
2009,08,07,16,08,14.70
2009,08,07,16,09,14.70
2009,08,07,16,10,14.70
2009,08,07,16,11,14.60
2009,08,07,16,12,14.60
2009,08,07,16,13,14.60
2009,08,07,16,14,14.60
2009,08,07,16,15,14.70
2009,08,07,16,16,14.70
2009,08,07,16,17,14.60
2009,08,07,16,18,14.40
2009,08,07,16,19,14.30
2009,08,07,16,20,14.20
2009,08,07,16,21,14.20
2009,08,07,16,22,14.20
2009,08,07,16,23,14.20
2009,08,07,16,24,14.20
2009,08,07,16,25,14.10
2009,08,07,16,26,14.00
2009,08,07,16,27,14.00
2009,08,07,16,28,13.90
2009,08,07,16,29,13.90
2009,08,07,16,30,13.90
2009,08,07,16,31,13.90
2009,08,07,16,32,13.90
2009,08,07,16,33,13.90
2009,08,07,16,34,13.90
2009,08,07,16,35,13.90
2009,08,07,16,36,13.80
2009,08,07,16,37,13.80
2009,08,07,16,38,13.70
2009,08,07,16,39,13.60
2009,08,07,16,40,13.60
2009,08,07,16,41,13.60
2009,08,07,16,42,13.60
2009,08,07,16,43,13.50
2009,08,07,16,44,13.40
2009,08,07,16,45,13.40
2009,08,07,16,46,13.30
2009,08,07,16,47,13.30
2009,08,07,16,48,13.30
2009,08,07,16,49,13.30
2009,08,07,16,50,13.30
2009,08,07,16,51,13.30
2009,08,07,16,52,13.20
2009,08,07,16,53,13.30
2009,08,07,16,54,13.30
2009,08,07,16,55,13.20
2009,08,07,16,56,13.20
2009,08,07,16,57,13.30
2009,08,07,16,58,13.20
2009,08,07,16,59,13.20
2009,08,07,17,00,13.20
2009,08,07,17,01,13.20
2009,08,07,17,02,13.20
2009,08,07,17,03,13.20
2009,08,07,17,04,13.30
2009,08,07,17,05,13.30
2009,08,07,17,06,13.30
2009,08,07,17,07,13.30
2009,08,07,17,08,13.30
2009,08,07,17,09,13.40
2009,08,07,17,10,13.40
2009,08,07,17,11,13.50
2009,08,07,17,12,13.60
2009,08,07,17,13,13.70
2009,08,07,17,14,13.70
2009,08,07,17,15,13.70
2009,08,07,17,16,13.70
2009,08,07,17,17,13.70
2009,08,07,17,18,13.80
2009,08,07,17,19,13.80
2009,08,07,17,20,13.90
2009,08,07,17,21,13.90
2009,08,07,17,22,13.90
2009,08,07,17,23,13.90
2009,08,07,17,24,13.90
2009,08,07,17,25,14.00
2009,08,07,17,26,13.90
2009,08,07,17,27,13.90
2009,08,07,17,28,13.90
2009,08,07,17,29,13.80
2009,08,07,17,30,13.80
2009,08,07,17,31,13.80
2009,08,07,17,32,13.80
2009,08,07,17,33,13.80
2009,08,07,17,34,13.80
2009,08,07,17,35,13.70
2009,08,07,17,36,13.70
2009,08,07,17,37,13.70
2009,08,07,17,38,13.70
2009,08,07,17,39,13.80
2009,08,07,17,40,13.80
2009,08,07,17,41,13.90
2009,08,07,17,42,14.00
2009,08,07,17,43,14.10
2009,08,07,17,44,14.20
2009,08,07,17,45,14.20
2009,08,07,17,46,14.20
2009,08,07,17,47,14.20
2009,08,07,17,48,14.20
2009,08,07,17,49,14.30
2009,08,07,17,50,14.30
2009,08,07,17,51,14.40
2009,08,07,17,52,14.40
2009,08,07,17,53,14.40
2009,08,07,17,54,14.40
2009,08,07,17,55,14.30
2009,08,07,17,56,14.30
2009,08,07,17,57,14.20
2009,08,07,17,58,14.20
2009,08,07,17,59,14.20
2009,08,07,18,00,14.20
2009,08,07,18,01,14.20
2009,08,07,18,02,14.20
2009,08,07,18,03,14.20
2009,08,07,18,04,14.20
2009,08,07,18,05,14.20
2009,08,07,18,06,14.20
2009,08,07,18,07,14.20
2009,08,07,18,08,14.20
2009,08,07,18,09,14.20
2009,08,07,18,10,14.20
2009,08,07,18,11,14.20
2009,08,07,18,12,14.20
2009,08,07,18,13,14.20
2009,08,07,18,14,14.20
2009,08,07,18,15,14.20
2009,08,07,18,16,14.20
2009,08,07,18,17,14.10
2009,08,07,18,18,14.10
2009,08,07,18,19,14.10
2009,08,07,18,20,14.10
2009,08,07,18,21,14.10
2009,08,07,18,22,14.10
2009,08,07,18,23,14.10
2009,08,07,18,24,14.10
2009,08,07,18,25,14.10
2009,08,07,18,26,14.10
2009,08,07,18,27,14.10
2009,08,07,18,28,14.10
2009,08,07,18,29,14.00
2009,08,07,18,30,14.00
2009,08,07,18,31,14.00
2009,08,07,18,32,14.00
2009,08,07,18,33,14.00
2009,08,07,18,34,14.00
2009,08,07,18,35,14.00
2009,08,07,18,36,14.00
2009,08,07,18,37,14.00
2009,08,07,18,38,14.00
2009,08,07,18,39,14.00
2009,08,07,18,40,14.00
2009,08,07,18,41,14.10
2009,08,07,18,42,14.10
2009,08,07,18,43,14.10
2009,08,07,18,44,14.10
2009,08,07,18,45,14.10
2009,08,07,18,46,14.00
2009,08,07,18,47,14.00
2009,08,07,18,48,14.00
2009,08,07,18,49,14.00
2009,08,07,18,50,14.00
2009,08,07,18,51,14.00
2009,08,07,18,52,14.00
2009,08,07,18,53,13.90
2009,08,07,18,54,13.90
2009,08,07,18,55,13.90
2009,08,07,18,56,13.90
2009,08,07,18,57,13.90
2009,08,07,18,58,13.80
2009,08,07,18,59,13.80
2009,08,07,19,00,13.80
2009,08,07,19,01,13.80
2009,08,07,19,02,13.80
2009,08,07,19,03,13.80
2009,08,07,19,04,13.80
2009,08,07,19,05,13.80
2009,08,07,19,06,13.80
2009,08,07,19,07,13.80
2009,08,07,19,08,13.90
2009,08,07,19,09,13.90
2009,08,07,19,10,13.90
2009,08,07,19,11,13.90
2009,08,07,19,12,13.90
2009,08,07,19,13,14.00
2009,08,07,19,14,14.00
2009,08,07,19,15,14.00
2009,08,07,19,16,14.10
2009,08,07,19,17,14.10
2009,08,07,19,18,14.10
2009,08,07,19,19,14.10
2009,08,07,19,20,14.10
2009,08,07,19,21,14.10
2009,08,07,19,22,14.10
2009,08,07,19,23,14.20
2009,08,07,19,24,14.20
2009,08,07,19,25,14.20
2009,08,07,19,26,14.20
2009,08,07,19,27,14.20
2009,08,07,19,28,14.20
2009,08,07,19,29,14.20
2009,08,07,19,30,14.20
2009,08,07,19,31,14.20
2009,08,07,19,32,14.20
2009,08,07,19,33,14.20
2009,08,07,19,34,14.20
2009,08,07,19,35,14.20
2009,08,07,19,36,14.20
2009,08,07,19,37,14.20
2009,08,07,19,38,14.20
2009,08,07,19,39,14.20
2009,08,07,19,40,14.20
2009,08,07,19,41,14.20
2009,08,07,19,42,14.20
2009,08,07,19,43,14.20
2009,08,07,19,44,14.20
2009,08,07,19,45,14.30
2009,08,07,19,46,14.40
2009,08,07,19,47,14.40
2009,08,07,19,48,14.40
2009,08,07,19,49,14.50
2009,08,07,19,50,14.50
2009,08,07,19,51,14.60
2009,08,07,19,52,14.60
2009,08,07,19,53,14.70
2009,08,07,19,54,14.70
2009,08,07,19,55,14.80
2009,08,07,19,56,14.80
2009,08,07,19,57,14.80
2009,08,07,19,58,14.80
2009,08,07,19,59,14.90
2009,08,07,20,00,14.90
2009,08,07,20,01,14.90
2009,08,07,20,02,14.90
2009,08,07,20,03,14.90
2009,08,07,20,04,14.90
2009,08,07,20,05,14.90
2009,08,07,20,06,14.90
2009,08,07,20,07,14.90
2009,08,07,20,08,14.90
2009,08,07,20,09,14.90
2009,08,07,20,10,14.90
2009,08,07,20,11,14.90
2009,08,07,20,12,14.90
2009,08,07,20,13,14.90
2009,08,07,20,14,14.90
2009,08,07,20,15,14.90
2009,08,07,20,16,14.80
2009,08,07,20,17,14.80
2009,08,07,20,18,14.80
2009,08,07,20,19,14.80
2009,08,07,20,20,14.80
2009,08,07,20,21,14.80
2009,08,07,20,22,14.80
2009,08,07,20,23,14.80
2009,08,07,20,24,14.80
2009,08,07,20,25,14.80
2009,08,07,20,26,14.80
2009,08,07,20,27,14.80
2009,08,07,20,28,14.80
2009,08,07,20,29,14.80
2009,08,07,20,30,14.80
2009,08,07,20,31,14.80
2009,08,07,20,32,14.80
2009,08,07,20,33,14.80
2009,08,07,20,34,14.80
2009,08,07,20,35,14.80
2009,08,07,20,36,14.80
2009,08,07,20,37,14.80
2009,08,07,20,38,14.80
2009,08,07,20,39,14.80
2009,08,07,20,40,14.80
2009,08,07,20,41,14.70
2009,08,07,20,42,14.70